Volver al catálogo

STARLINK-31101

ActivoComunicacionesVLEO
NORAD 58737·PAYLOAD·🇺🇸 United States

Lanzado Jan 7, 2024 desde Cape Canaveral Space Force Station

Loading…

Próximos Pases (próximas 24 horas)

TLE

ActualizadoSource: CelesTrak SupGP

Época: Sep 14, 2026, 22:04 UTC

1 58737C 24005K   26257.91993056  .00030835  00000+0  11177-2 0  2579
2 58737  43.0022 231.0189 0001228 267.8483 129.9075 15.27539114    10

Sigue STARLINK-31101 en tiempo real con AllMySat

Download on the App Store